Regional Weather Roundup
Issued by NWS

Home | Current Version | Previous Version | Text Only | Print | Product List | Glossary Off
Versions: 1 2 3 4 5 6 7 8 9 10 11 12 13 14 15 16 17 18 19 20 21 22 23 24 25 26 27 28 29 30 31 32 33 34 35 36 37 38 39 40 41 42 43 44 45 46 47 48 49 50

000
ASUS43 KBIS 182310
RWRND

NORTH DAKOTA REGIONAL WEATHER ROUNDUP
NATIONAL WEATHER SERVICE BISMARCK ND
500 PM CST WED JAN 18 2017

NOTE: "FAIR" INDICATES FEW OR NO CLOUDS BELOW 12,000 FEET WITH NO
SIGNIFICANT WEATHER AND/OR OBSTRUCTIONS TO VISIBILITY.


NDZ001>003-009>011-017-190000-
NORTHWEST NORTH DAKOTA

CITY           SKY/WX    TMP DP  RH WIND       PRES   REMARKS
WILLISTON      FAIR      37  26  64 SW6       29.57S
MINOT          FAIR      41  28  60 SW16      29.55R
MINOT AFB      CLEAR     39  29  67 SW12      29.53S
$$

NDZ018>021-031>035-040>046-190000-
SOUTHWEST NORTH DAKOTA

CITY           SKY/WX    TMP DP  RH WIND       PRES   REMARKS
BISMARCK       FAIR      27  20  75 SE5       29.66S
DICKINSON      FAIR      38  26  62 W5        29.59R
GARRISON         N/A     33  26  75 S5        29.60R
HETTINGER ARPT CLEAR     37  26  64 CALM      29.64S
$$

NDZ004>008-012>016-024-026-027-054-190000-
NORTHEAST NORTH DAKOTA

CITY           SKY/WX    TMP DP  RH WIND       PRES   REMARKS
GRAND FORKS    CLOUDY    30  23  75 SE12      29.67S
GRND FRKS AFB  CLOUDY    32  26  78 S9        29.66F
DEVILS LAKE    FAIR      36  28  73 S8        29.62S
$$

NDZ022-023-025-028>030-036>039-047>053-190000-
SOUTHEAST NORTH DAKOTA

CITY           SKY/WX    TMP DP  RH WIND       PRES   REMARKS
FARGO          CLEAR     35  26  69 S10       29.73R
JAMESTOWN      FAIR      33  28  81 S10       29.66S
$$





USA.gov is the U.S. government's official web portal to all federal, state and local government web resources and services.